Location: A�t �Alizem
(31.2076°N, 8.7872°W)
Time: 06:37:37
(UTC+00:00)

Cosmos 1356 - Pass Details

Date: 27 November 2020
Orbit: 440 x 444 km, 81.1° (Epoch: 25 January)

Event Time Altitude Azimuth Distance (km) Brightness Sun altitude
Rises 18:27:21 0° 347° (NNW) 2,442 7.1 -11.7°
Reaches altitude 10° 18:29:26 10° 343° (NNW) 1,569 6.1 -12.2°
Maximum altitude 18:32:48 58° 265° (W) 525 4.1 -12.8°
Drops below altitude 10° 18:36:09 10° 185° (S) 1,560 6.4 -13.5°
Sets 18:38:13 0° 181° (S) 2,427 7.4 -13.9°
